Location: Kuffner-Sternwarte
(48.2130°N, 16.2960°E)
Time: 19:00:50
(UTC+02:00)

COROT - Pass Details

Date: 17 August 2018
Orbit: 599 x 890 km, 90.0° (Epoch: 18 August)

Event Time Altitude Azimuth Distance (km) Brightness Sun altitude
Exits shadow 03:00:25 - 135° (SE) 3,085 9.0 -22.7°
Reaches altitude 10° 03:03:10 10° 119° (ESE) 2,173 8.4 -22.4°
Maximum altitude 03:06:30 19° 75° (ENE) 1,589 8.2 -22.1°
Drops below altitude 10° 03:09:42 10° 30° (NNE) 2,069 9.4 -21.8°
Sets 03:12:23 0° 13° (NNE) 2,944 10.2 -21.6°
